| time (UTC) | temp F | wind direction | speed MPH | gust MPH | rain 1hr in | rain 24hr in | rain mn in | humidity % | barometer mb |
| 20260906234551 | 73 | 0 | 2.0 | 6.0 | 0.00 | 0.00 | 0.00 | 78 | 1015.8 |
| 20260906233100 | 73 | 128 | 3.0 | 6.0 | 0.00 | 0.00 | 0.00 | 77 | 1015.7 |
| 20260906231555 | 73 | 123 | 3.0 | 7.0 | 0.00 | 0.00 | 0.00 | 76 | 1015.6 |
| 20260906230115 | 74 | 103 | 5.0 | 9.0 | 0.00 | 0.00 | 0.00 | 75 | 1015.4 |
| 20260906224606 | 74 | 102 | 5.0 | 9.0 | 0.00 | 0.00 | 0.00 | 75 | 1015.5 |
| 20260906223056 | 74 | 112 | 6.0 | 10.0 | 0.00 | 0.00 | 0.00 | 75 | 1015.6 |
| 20260906221559 | 74 | 114 | 6.0 | 10.0 | 0.00 | 0.00 | 0.00 | 75 | 1015.5 |
| 20260906220050 | 74 | 123 | 6.0 | 10.0 | 0.00 | 0.00 | 0.00 | 73 | 1015.5 |
| 20260906214557 | 74 | 95 | 7.0 | 12.0 | 0.00 | 0.00 | 0.00 | 74 | 1015.3 |
| 20260906213054 | 75 | 85 | 5.0 | 11.0 | 0.00 | 0.00 | 0.00 | 71 | 1015.1 |
| 20260906211556 | 75 | 106 | 7.0 | 12.0 | 0.00 | 0.00 | 0.00 | 73 | 1015.3 |
| 20260906210049 | 75 | 80 | 8.0 | 14.0 | 0.00 | 0.00 | 0.00 | 74 | 1015.2 |
| 20260906204559 | 76 | 105 | 9.0 | 15.0 | 0.00 | 0.00 | 0.00 | 69 | 1015.2 |
| 20260906203053 | 76 | 61 | 8.0 | 13.0 | 0.00 | 0.00 | 0.00 | 70 | 1015.1 |
| 20260906201607 | 76 | 74 | 7.0 | 11.0 | 0.00 | 0.00 | 0.00 | 72 | 1015.1 |
| 20260906200056 | 76 | 55 | 7.0 | 13.0 | 0.00 | 0.00 | 0.00 | 74 | 1015.1 |
| 20260906194554 | 76 | 92 | 5.0 | 11.0 | 0.00 | 0.00 | 0.00 | 70 | 1015.1 |
| 20260906193054 | 76 | 42 | 7.0 | 14.0 | 0.00 | 0.00 | 0.00 | 72 | 1015.1 |
| 20260906191555 | 77 | 71 | 8.0 | 12.0 | 0.00 | 0.00 | 0.00 | 71 | 1015.1 |
| 20260906190054 | 77 | 351 | 7.0 | 12.0 | 0.00 | 0.00 | 0.00 | 65 | 1015.1 |
| 20260906184552 | 78 | 360 | 7.0 | 12.0 | 0.00 | 0.00 | 0.00 | 66 | 1015.2 |
| 20260906183110 | 79 | 313 | 4.0 | 9.0 | 0.00 | 0.00 | 0.00 | 66 | 1015.2 |
| 20260906181557 | 79 | 20 | 4.0 | 10.0 | 0.00 | 0.00 | 0.00 | 67 | 1015.3 |
| 20260906180115 | 78 | 350 | 5.0 | 11.0 | 0.00 | 0.00 | 0.00 | 68 | 1015.3 |
| 20260906174550 | 78 | 355 | 5.0 | 10.0 | 0.00 | 0.00 | 0.00 | 68 | 1015.2 |
| 20260906173058 | 78 | 347 | 5.0 | 11.0 | 0.00 | 0.00 | 0.00 | 67 | 1015.2 |
| 20260906171555 | 78 | 350 | 7.0 | 13.0 | 0.00 | 0.00 | 0.00 | 68 | 1015.3 |
| 20260906170053 | 78 | 9 | 6.0 | 15.0 | 0.00 | 0.00 | 0.00 | 69 | 1015.4 |
| 20260906164549 | 77 | 335 | 5.0 | 13.0 | 0.00 | 0.00 | 0.00 | 74 | 1015.4 |
| 20260906163106 | 77 | 22 | 7.0 | 12.0 | 0.00 | 0.00 | 0.00 | 71 | 1015.3 |
| 20260906161559 | 76 | 344 | 7.0 | 12.0 | 0.00 | 0.00 | 0.00 | 73 | 1015.3 |
| 20260906160053 | 76 | 9 | 6.0 | 12.0 | 0.00 | 0.00 | 0.00 | 74 | 1015.5 |
| 20260906154549 | 76 | 355 | 6.0 | 12.0 | 0.00 | 0.00 | 0.00 | 73 | 1015.3 |
| 20260906153058 | 76 | 343 | 5.0 | 11.0 | 0.00 | 0.00 | 0.00 | 75 | 1015.4 |
| 20260906151553 | 75 | 15 | 6.0 | 11.0 | 0.00 | 0.00 | 0.00 | 75 | 1015.4 |
| 20260906144603 | 74 | 46 | 7.0 | 15.0 | 0.00 | 0.00 | 0.00 | 76 | 1015.2 |
| 20260906143055 | 75 | 32 | 7.0 | 13.0 | 0.00 | 0.00 | 0.00 | 77 | 1015.1 |
| 20260906141552 | 74 | 38 | 6.0 | 11.0 | 0.00 | 0.00 | 0.00 | 76 | 1015.0 |
| 20260906140057 | 74 | 28 | 6.0 | 11.0 | 0.00 | 0.00 | 0.00 | 76 | 1014.7 |
| 20260906134601 | 73 | 62 | 5.0 | 10.0 | 0.00 | 0.00 | 0.00 | 78 | 1014.8 |
| 20260906133059 | 73 | 53 | 4.0 | 9.0 | 0.00 | 0.00 | 0.00 | 81 | 1014.7 |
| 20260906131552 | 72 | 42 | 5.0 | 11.0 | 0.00 | 0.00 | 0.00 | 82 | 1014.5 |
| 20260906130107 | 71 | 30 | 5.0 | 13.0 | 0.00 | 0.00 | 0.00 | 84 | 1014.3 |
| 20260906124554 | 72 | 45 | 8.0 | 14.0 | 0.00 | 0.00 | 0.00 | 85 | 1014.4 |
| 20260906123054 | 72 | 49 | 6.0 | 14.0 | 0.00 | 0.00 | 0.00 | 85 | 1014.3 |
| 20260906121556 | 72 | 9 | 8.0 | 13.0 | 0.00 | 0.00 | 0.00 | 84 | 1014.2 |
| 20260906120057 | 72 | 58 | 6.0 | 12.0 | 0.00 | 0.00 | 0.00 | 84 | 1014.1 |
| 20260906114610 | 72 | 34 | 6.0 | 12.0 | 0.00 | 0.00 | 0.00 | 84 | 1014.0 |
| 20260906113057 | 72 | 44 | 7.0 | 12.0 | 0.00 | 0.00 | 0.00 | 85 | 1013.8 |
| 20260906111600 | 72 | 49 | 5.0 | 9.0 | 0.00 | 0.00 | 0.00 | 85 | 1013.6 |
| 20260906110054 | 72 | 14 | 3.0 | 10.0 | 0.00 | 0.00 | 0.00 | 84 | 1013.4 |
| 20260906104551 | 71 | 0 | 0.0 | 5.0 | 0.00 | 0.00 | 0.00 | 83 | 1013.1 |
| 20260906103056 | 72 | 5 | 2.0 | 7.0 | 0.00 | 0.00 | 0.00 | 83 | 1012.7 |
| 20260906101554 | 72 | 39 | 3.0 | 9.0 | 0.00 | 0.00 | 0.00 | 83 | 1012.5 |
| 20260906100051 | 72 | 38 | 5.0 | 10.0 | 0.00 | 0.00 | 0.00 | 83 | 1012.5 |
| 20260906094550 | 72 | 31 | 4.0 | 8.0 | 0.00 | 0.00 | 0.00 | 82 | 1012.3 |
| 20260906093056 | 72 | 49 | 3.0 | 7.0 | 0.00 | 0.00 | 0.00 | 81 | 1012.2 |
| 20260906091553 | 73 | 42 | 2.0 | 6.0 | 0.00 | 0.00 | 0.00 | 81 | 1012.2 |
| 20260906090103 | 73 | 45 | 4.0 | 8.0 | 0.00 | 0.00 | 0.00 | 80 | 1012.1 |
| 20260906084550 | 73 | 56 | 3.0 | 9.0 | 0.00 | 0.00 | 0.00 | 79 | 1011.9 |
| 20260906083055 | 73 | 34 | 5.0 | 11.0 | 0.00 | 0.00 | 0.00 | 78 | 1011.8 |
| 20260906081558 | 73 | 45 | 7.0 | 13.0 | 0.00 | 0.00 | 0.00 | 79 | 1011.6 |
| 20260906080053 | 70 | 333 | 3.0 | 6.0 | 0.00 | 0.00 | 0.00 | 88 | 1011.5 |
| 20260906074608 | 67 | 302 | 1.0 | 4.0 | 0.00 | 0.00 | 0.00 | 89 | 1011.6 |
| 20260906073100 | 67 | 302 | 2.0 | 4.0 | 0.00 | 0.00 | 0.00 | 88 | 1011.5 |
| 20260906071558 | 67 | 302 | 0.0 | 3.0 | 0.00 | 0.00 | 0.00 | 88 | 1011.5 |
| 20260906070051 | 67 | 302 | 1.0 | 3.0 | 0.00 | 0.00 | 0.00 | 88 | 1011.7 |
| 20260906064555 | 67 | 302 | 2.0 | 4.0 | 0.00 | 0.00 | 0.00 | 88 | 1011.5 |
| 20260906063055 | 67 | 49 | 2.0 | 3.0 | 0.00 | 0.00 | 0.00 | 88 | 1011.6 |
| 20260906061557 | 67 | 49 | 1.0 | 3.0 | 0.00 | 0.00 | 0.00 | 89 | 1011.7 |
| 20260906060051 | 67 | 49 | 1.0 | 2.0 | 0.00 | 0.00 | 0.00 | 89 | 1011.8 |
| 20260906054547 | 67 | 0 | 0.0 | 0.0 | 0.00 | 0.00 | 0.00 | 88 | 1011.8 |
| 20260906053050 | 68 | 0 | 0.0 | 0.0 | 0.00 | 0.00 | 0.00 | 88 | 1012.1 |
| 20260906051603 | 68 | 0 | 0.0 | 0.0 | 0.00 | 0.00 | 0.00 | 88 | 1012.2 |
| 20260906050056 | 68 | 0 | 0.0 | 0.0 | 0.00 | 0.00 | 0.00 | 88 | 1012.2 |
| 20260906044552 | 68 | 0 | 0.0 | 0.0 | 0.00 | 0.00 | 0.00 | 87 | 1012.3 |
| 20260906043048 | 68 | 0 | 0.0 | 0.0 | 0.00 | 0.00 | 0.00 | 87 | 1012.5 |
| 20260906041553 | 69 | 0 | 0.0 | 0.0 | 0.00 | 0.00 | 0.00 | 86 | 1012.5 |
| 20260906040055 | 69 | 0 | 0.0 | 0.0 | 0.00 | 0.00 | 0.00 | 86 | 1012.6 |
| 20260906034551 | 69 | 0 | 0.0 | 0.0 | 0.00 | 0.00 | 0.00 | 85 | 1012.5 |
| 20260906033059 | 70 | 0 | 0.0 | 0.0 | 0.00 | 0.00 | 0.00 | 84 | 1012.5 |
| 20260906031601 | 70 | 0 | 0.0 | 0.0 | 0.00 | 0.00 | 0.00 | 84 | 1012.4 |
| 20260906030053 | 71 | 0 | 0.0 | 0.0 | 0.00 | 0.00 | 0.00 | 83 | 1012.3 |
| 20260906024602 | 71 | 0 | 0.0 | 0.0 | 0.00 | 0.00 | 0.00 | 82 | 1012.5 |
| 20260906023053 | 72 | 0 | 0.0 | 0.0 | 0.00 | 0.00 | 0.00 | 80 | 1012.3 |
| 20260906021553 | 72 | 0 | 0.0 | 0.0 | 0.00 | 0.00 | 0.00 | 78 | 1012.1 |
| 20260906020105 | 73 | 0 | 0.0 | 0.0 | 0.00 | 0.00 | 0.00 | 76 | 1012.2 |
| 20260906014555 | 74 | 0 | 0.0 | 0.0 | 0.00 | 0.00 | 0.00 | 74 | 1011.9 |
| 20260906013053 | 75 | 49 | 1.0 | 3.0 | 0.00 | 0.00 | 0.00 | 73 | 1011.7 |
| 20260906011553 | 76 | 0 | 0.0 | 3.0 | 0.00 | 0.00 | 0.00 | 70 | 1011.7 |
| 20260906010101 | 77 | 51 | 2.0 | 5.0 | 0.00 | 0.00 | 0.00 | 66 | 1011.7 |
| 20260906004547 | 77 | 298 | 1.0 | 5.0 | 0.00 | 0.00 | 0.00 | 67 | 1011.8 |
| 20260906003057 | 77 | 306 | 2.0 | 6.0 | 0.00 | 0.00 | 0.00 | 67 | 1011.6 |
| 20260906001554 | 77 | 329 | 2.0 | 6.0 | 0.00 | 0.00 | 0.00 | 68 | 1011.4 |
| 20260906000050 | 77 | 327 | 2.0 | 5.0 | 0.00 | 0.00 | 0.00 | 67 | 1011.3 |